Content
SEND FEEDBACK

Daily
Averages
Monthly
Summary
United States of America

STAR, TEXAS


Home > North America > United States > Texas
Elevation: 1370 feet     Latitude: 31 28N     Longitude: 098 25W

WEATHER
 
SELECT A DAY
Number of Records: 163,874;   Date Range: 12/7/07 - 10/24/14
 
SHARE

PRINT THIS DATA

[ ← Previous Day ]
WEATHER ALMANAC - JANUARY 31, 2013
[ Next Day → ]
[ °C ]   °F
Weather ElementAverageHighLow
Temperature50.8 °F68.7 °F (3:35 pm)32.9 °F (7:35 am)
Dewpoint19.1 °F25.3 °F (10:55 pm)15.4 °F (12:15 pm)
Humidity32.5 %62 % (12:55 am)14 % (2:35 pm)
Barometer30.19 in30.26 in (11:55 pm)30.14 in (4:35 am)
Wind Speed10.4 mph20.7 mph (10:35 am)
Wind Gust31.1 mph (3:35 pm)
Weather ElementAverage
Visibility10 mi
Wind DirectionWSW (238.5 °)

Weather ElementTotal
Precipitation---
Heating Degree Days14.2 (Base 65)
Growing Degree Days0.8 (Base 50)
Averaged from 68 records on January 31, 2013
WEATHER CONDITIONS BREAKOUT
WIND DIRECTION BREAKOUT
WEATHER BY HOUR - JANUARY 31, 2013
[ °C ]   °F
Local TimeTemperatureDewpointHumidityBarometerVisibilityWind DirectionWind SpeedGust SpeedPrecipitationEventsConditions
12:35 AM33.6 °F20.5 °F59 %30.18 in10.0 miSSW (200°)9.2 mphClear
12:55 AM33.1 °F21.4 °F62 %30.17 in10.0 miSSW (200°)8.1 mphClear
1:15 AM33.3 °F21.2 °F61 %30.17 in10.0 miSW (220°)9.2 mphClear
1:35 AM34.2 °F20.8 °F58 %30.17 in10.0 miSW (220°)10.4 mphClear
1:55 AM35.4 °F20.3 °F54 %30.17 in10.0 miSW (230°)10.4 mphClear
2:15 AM38.3 °F19.0 °F46 %30.17 in10.0 miSW (230°)11.5 mphClear
2:35 AM38.5 °F18.7 °F45 %30.17 in10.0 miSW (230°)10.4 mphClear
2:55 AM38.5 °F18.5 °F45 %30.17 in10.0 miWSW (240°)10.4 mphClear
3:15 AM38.5 °F18.3 °F44 %30.16 in10.0 miWSW (240°)9.2 mphClear
3:35 AM37.2 °F19.0 °F48 %30.16 in10.0 miWSW (240°)8.1 mphClear
3:55 AM36.3 °F19.6 °F51 %30.16 in10.0 miWSW (240°)6.9 mphClear
4:15 AM35.2 °F19.6 °F53 %30.15 in10.0 miWSW (250°)6.9 mphClear
4:35 AM37.8 °F18.5 °F46 %30.14 in10.0 miWest (260°)8.1 mphClear
4:55 AM37.4 °F18.3 °F46 %30.14 in10.0 miWNW (290°)6.9 mphClear
5:15 AM37.0 °F17.8 °F46 %30.14 in10.0 miCalmClear
5:35 AM36.5 °F17.4 °F46 %30.14 in10.0 miWSW (250°)3.5 mphClear
5:55 AM37.6 °F16.9 °F43 %30.15 in10.0 miSW (230°)3.5 mphClear
6:15 AM36.5 °F17.4 °F46 %30.16 in10.0 miSSW (210°)5.8 mphClear
6:55 AM34.5 °F18.7 °F52 %30.17 in10.0 miSSW (210°)5.8 mphClear
7:15 AM33.1 °F19.4 °F57 %30.18 in10.0 miSSW (200°)8.1 mphClear
7:35 AM32.9 °F19.9 °F59 %30.19 in10.0 miSW (230°)8.1 mphClear
7:55 AM35.8 °F19.2 °F51 %30.19 in10.0 miSW (220°)10.4 mphClear
8:15 AM37.8 °F19.4 °F48 %30.19 in10.0 miSW (230°)8.1 mphClear
8:35 AM40.6 °F18.7 °F41 %30.20 in10.0 miSW (230°)5.8 mphClear
9:15 AM47.5 °F18.5 °F32 %30.22 in10.0 miWSW (240°)17.3 mph23.0 mphClear
9:35 AM50.0 °F17.2 °F27 %30.22 in10.0 miWSW (240°)16.1 mph23.0 mphClear
9:55 AM51.6 °F16.5 °F25 %30.23 in10.0 miWSW (240°)17.3 mphClear
10:15 AM53.4 °F16.7 °F24 %30.24 in10.0 miSW (230°)18.4 mph24.2 mphClear
10:35 AM55.2 °F16.3 °F22 %30.24 in10.0 miSW (230°)20.7 mphClear
10:55 AM57.0 °F16.7 °F21 %30.24 in10.0 miSW (230°)17.3 mph24.2 mphClear
11:15 AM59.0 °F17.2 °F20 %30.24 in10.0 miSW (230°)16.1 mph23.0 mphClear
11:35 AM60.4 °F17.1 °F19 %30.24 in10.0 miWSW (240°)18.4 mph25.3 mphClear
11:55 AM61.2 °F15.8 °F17 %30.22 in10.0 miWSW (240°)19.6 mphClear
12:15 PM62.2 °F15.4 °F16 %30.22 in10.0 miWSW (240°)19.6 mphClear
12:35 PM63.0 °F16.3 °F16 %30.21 in10.0 miWSW (240°)15.0 mph23.0 mphClear
12:55 PM63.9 °F16.5 °F16 %30.20 in10.0 miSW (230°)15.0 mph25.3 mphClear
1:15 PM64.6 °F16.2 °F15 %30.19 in10.0 miWSW (250°)13.8 mph21.9 mphClear
1:35 PM65.3 °F16.3 °F15 %30.18 in10.0 miWSW (250°)13.8 mph21.9 mphClear
1:55 PM66.0 °F17.1 °F15 %30.17 in10.0 miWSW (250°)13.8 mphClear
2:15 PM66.7 °F16.5 °F15 %30.16 in10.0 miWSW (250°)15.0 mph25.3 mphClear
2:35 PM67.3 °F16.9 °F14 %30.15 in10.0 miWSW (240°)17.3 mph24.2 mphClear
3:15 PM68.2 °F17.4 °F14 %30.14 in10.0 miSW (230°)15.0 mph21.9 mphClear
3:35 PM68.7 °F17.8 °F14 %30.14 in10.0 miWest (270°)13.8 mph31.1 mphClear
3:55 PM68.5 °F17.4 °F14 %30.14 in10.0 miWSW (240°)16.1 mphClear
4:15 PM68.5 °F17.4 °F14 %30.14 in10.0 miWSW (250°)15.0 mph20.7 mphClear
4:35 PM68.2 °F17.1 °F14 %30.15 in10.0 miWest (260°)17.3 mph23.0 mphClear
4:55 PM67.1 °F17.2 °F15 %30.14 in10.0 miWest (270°)12.7 mphClear
5:15 PM66.7 °F18.0 °F15 %30.14 in10.0 miWest (260°)11.5 mphClear
5:35 PM66.7 °F18.3 °F16 %30.14 in10.0 miWest (260°)13.8 mphClear
5:55 PM64.4 °F19.0 °F18 %30.14 in10.0 miWest (260°)9.2 mphClear
6:15 PM60.4 °F22.1 °F23 %30.14 in10.0 miWest (270°)6.9 mphClear
6:35 PM57.4 °F22.8 °F26 %30.16 in10.0 miWSW (240°)4.6 mphClear
6:55 PM58.5 °F21.0 °F24 %30.17 in10.0 miWSW (240°)6.9 mphClear
7:15 PM58.5 °F20.1 °F23 %30.18 in10.0 miWSW (240°)5.8 mphClear
7:35 PM58.6 °F18.7 °F21 %30.20 in10.0 miSouth (190°)5.8 mphClear
7:55 PM56.5 °F19.9 °F24 %30.20 in10.0 miSSW (200°)5.8 mphClear
8:15 PM56.1 °F19.8 °F24 %30.21 in10.0 miSSW (210°)5.8 mphClear
8:35 PM54.5 °F20.3 °F26 %30.22 in10.0 miSW (220°)6.9 mphClear
8:55 PM53.4 °F20.7 °F28 %30.22 in10.0 miSSW (210°)4.6 mphClear
9:15 PM53.6 °F20.1 °F27 %30.22 in10.0 miSSW (210°)4.6 mphClear
9:35 PM50.5 °F23.5 °F35 %30.24 in10.0 miNNW (340°)3.5 mphClear
9:55 PM50.7 °F23.7 °F35 %30.24 in10.0 miNW (310°)5.8 mphClear
10:15 PM50.7 °F23.9 °F35 %30.24 in10.0 miWest (270°)8.1 mphClear
10:35 PM50.0 °F24.3 °F37 %30.25 in10.0 miWSW (240°)5.8 mphClear
10:55 PM48.7 °F25.3 °F40 %30.25 in10.0 miWest (260°)6.9 mphClear
11:15 PM48.7 °F24.6 °F39 %30.25 in10.0 miWest (260°)8.1 mphClear
11:35 PM50.2 °F23.2 °F35 %30.25 in10.0 miWNW (290°)6.9 mphClear
11:55 PM48.4 °F24.6 °F39 %30.26 in10.0 miNorth (350°)9.2 mphClear
Hourly data recorded from KMNZ, located miles away from Star, Texas







STORIES FROM OUR PARTNERS